Regional Weather Roundup
Issued by NWS

Home | Current Version | Previous Version | Text Only | Print | Product List | Glossary On
Versions: 1 2 3 4 5 6 7 8 9 10 11 12 13 14 15 16 17 18 19 20 21 22 23 24 25 26 27 28 29 30 31 32 33 34 35 36 37 38 39 40 41 42 43 44 45 46 47 48 49 50
000
ASUS46 KLOX 031713
RWRCA

SOUTHERN CALIFORNIA WEATHER ROUNDUP
NATIONAL WEATHER SERVICE OXNARD CALIFORNIA
1000 AM PDT MON AUG 03 2015

NOTE: "FAIR" INDICATES FEW OR NO CLOUDS BELOW 12,000 FEET WITH NO
SIGNIFICANT WEATHER AND/OR OBSTRUCTIONS TO VISIBILITY.

  -  STATIONS PRECEEDED BY AN ASTERISK (*) ARE NOT NWS OR FAA
     STATIONS AND ARE NOT SUBJECT TO NWS AND FAA QUALITY CONTROL.

CAZ041-042-087-031800-
LA AND ORANGE COUNTY COASTAL AREAS


CITY           SKY/WX    TMP DP  RH WIND       PRES   REMARKS
L.A. DOWNTOWN  SUNNY     78  65  63 CALM      29.91R
L.A. AIRPORT   MOSUNNY   76  64  66 VRB3      29.91S
LONG BEACH     MOSUNNY   75  64  68 CALM      29.91S

CITY           SKY/WX    TMP DP  RH WIND       PRES   REMARKS
AVALON           N/A     73 N/A N/A MISG        N/A
FULLERTON      SUNNY     77  64  64 S5        29.90S
*GETTY CENTER    N/A     73  63  68 S3          N/A
HAWTHORNE      SUNNY     76  63  64 CALM      29.91S
*LOS ALAMITOS  MOSUNNY   75  65  72 VRB2      29.91S
*REDONDO BEACH   N/A     78  65  64 W3        29.91S
SANTA ANA      MOSUNNY   73  64  73 CALM      29.91S
STA MONICA APT SUNNY     75  63  66 CALM      29.91S
TORRANCE       MOSUNNY   79  64  61 VRB7      29.92S
*UCLA            N/A    N/A N/A N/A SE7       29.89S

$$

CAZ547-548-048-031800-
LA COUNTY VALLEYS AND INLAND EMPIRE


CITY           SKY/WX    TMP DP  RH WIND       PRES   REMARKS
BURBANK          N/A     77  61  57 SE3       29.92R
VAN NUYS       SUNNY     77  61  57 VRB5      29.92R

CITY           SKY/WX    TMP DP  RH WIND       PRES   REMARKS
CORONA AIRPORT SUNNY     76  64  66 CALM      29.92S
CHINO          MOSUNNY   77  63  61 CALM      29.93R
MARCH AFB      SUNNY     78  64  61 VRB1      29.93S
*NORTHRIDGE      N/A     77  59  53 S2          N/A
ONTARIO        MOSUNNY   76  61  59 S3        29.92S
*PASADENA        N/A     81  68  65 CALM        N/A
POMONA         SUNNY     75  63  64 W6        29.95
RIVERSIDE      SUNNY     76  63  64 VRB3      29.91F
SAN BERNARDINO MOSUNNY   75  59  57 CALM      29.93R HAZE
*WHITEMAN AP   NOT AVBL
*WOODLAND HILL   N/A     79  61  53 N3          N/A

$$

CAZ054-055-031800-
LA AND SAN BERNARDINO COUNTY MOUNTAINS


CITY           SKY/WX    TMP DP  RH WIND       PRES   REMARKS
*BIG BEAR AIRP SUNNY     73  32  21 CALM      30.25R
SANDBERG       SUNNY     78  48  34 NW13      30.10S

$$

CAZ028-029-059-060-099-031800-
ANTELOPE VALLEY AND SURROUNDING AREAS


CITY           SKY/WX    TMP DP  RH WIND       PRES   REMARKS
LANCASTER      SUNNY     88  48  25 W9        29.95S
PALMDALE       SUNNY     85  44  23 NW5       29.96S

CITY           SKY/WX    TMP DP  RH WIND       PRES   REMARKS
29 PALMS       SUNNY     93  40  15 N6        29.97S
BARSTOW/DAGGET SUNNY     88  46  23 NW15      29.91S
BISHOP         SUNNY     84  45  25 VRB3      30.02F
CHINA LAKE     SUNNY     87  39  18 SW5       29.91S
EDWARDS AFB    MOSUNNY   85  50  28 SW8       29.93R
MOJAVE         SUNNY     86  46  25 CALM      29.96S
NEEDLES        SUNNY    102  42  13 CALM      29.81S HX  97
VICTORVILLE    SUNNY     84  39  20 CALM      29.98S

$$

CAZ039-040-031800-
VENTURA AND SANTA BARBARA COUNTY COAST


CITY           SKY/WX    TMP DP  RH WIND       PRES   REMARKS
CAMARILLO      SUNNY     75  61  61 SW6       29.91F
OXNARD AIRPORT SUNNY     72  63  73 VRB6      29.91F
*POINT MUGU    MOSUNNY   74  63  68 VRB6      29.92S
SBA APT/GOLETA SUNNY     73  63  70 S6        29.91R
*SANTA BARBARA   N/A     75  63  66 CALM      29.99S
*VENTURA         N/A     71  63  74 SW3       29.53S

$$

CAZ044-045-031800-
VENTURA COUNTY VALLEYS


CITY           SKY/WX    TMP DP  RH WIND       PRES   REMARKS
*SIMI VALLEY     N/A     75  63  66 SW3       29.86S
*FILLMORE        N/A     74  65  74 CALM      29.81S

$$

CAZ053-031800-
VENTURA COUNTY MOUNTAINS


CITY           SKY/WX    TMP DP  RH WIND       PRES   REMARKS

$$

CAZ034-035-036-031800-
CENTRAL COAST AND SANTA YNEZ VALLEY


CITY           SKY/WX    TMP DP  RH WIND       PRES   REMARKS
SAN LUIS OBISP SUNNY     73  57  57 MISG      29.96R
SANTA MARIA    MOSUNNY   71  59  65 VRB3      29.96S

CITY           SKY/WX    TMP DP  RH WIND       PRES   REMARKS
*LOMPOC        PTSUNNY   72  55  56 NW14      29.97S
*PISMO BEACH     N/A     65  60  86 W6        29.97S
*SANTA YNEZ    FAIR      68  55  64 W6        29.96S

$$

CAZ037-038-051-031800-
SAN LUIS OBISPO COUNTY INTERIOR AND CUYAMA VALLEY


CITY           SKY/WX    TMP DP  RH WIND       PRES   REMARKS
*CUYAMA          N/A     79  53  39 NE3       29.85S
PASO ROBLES    SUNNY     70  56  61 NW12      29.97R

$$

CAZ032-033-061-031800-
SOUTHERN DESERTS


CITY           SKY/WX    TMP DP  RH WIND       PRES   REMARKS
BLYTHE         SUNNY    101  47  16 S17       29.79R HX  97
IMPERIAL       SUNNY     95  62  33 SE6       29.77R HX  96
PALM SPRINGS   SUNNY     98  54  22 CALM      29.80R HX  96
THERMAL        SUNNY     97  56  25 SE9       29.75R HX  95

$$

ELSEWHERE ACROSS THE WESTERN UNITED STATES AND MEXICO


CITY           SKY/WX    TMP DP  RH WIND       PRES   REMARKS
DENVER, CO     CLOUDY    81  50  33 SW8       30.11S
GRAND CANYON,  SUNNY     78  44  29 VRB7G16   30.26S
HONOLULU, HI   MOSUNNY   81  68  65 N6        29.90R
KAHULUI, MAUI  PTSUNNY   79  70  73 N6        29.91R
LAKE TAHOE, CA SUNNY     73  35  25 SW3       30.18S
LAS VEGAS, NV  SUNNY     96  39  13 E5        29.85S HX  91
MAMMOTH LAKES, FAIR      70  37  30 CALM      30.24S
MEXICO CITY, M MOSUNNY   68  52  56 E7        30.32S
PHOENIX, AZ    MOSUNNY   98  54  22 CALM      29.86R HX  96
PORTLAND, OR   LGT RAIN  67  55  65 NW7       29.94R
RENO, NV       MOSUNNY   75  50  41 CALM      30.07F
SALT LAKE CITY LGT RAIN  63  60  90 N12       30.11R
SAN DIEGO, CA  MOSUNNY   73  61  65 S3        29.92S
SAN FRANCISCO, PTSUNNY   68  53  58 W13G18    29.98R
SAN JOSE, CA   PTSUNNY   67  54  63 W5        29.97S
SEATTLE, WA    PTSUNNY   65  53  65 SW5       29.94F
TIJUANA, MEX   SUNNY     72  61  68 W5        29.94

$$

STATION/POSITION TIME  TEMP    WIND        PRES    VSBY  WAVE
                       AIR SEA DIR/SP/G                  HT/PER
                 (UTC) (F)     (DEG/KT/KT) (MB)    (MI)  (FT/S)
POINT ARGUELLO B NOT AVBL
WEST SANTA BARBA 1650   63 64  320/ 17/ 21 1013.1R         4/15
POINT CONCEPTION NOT AVBL
EAST SANTA BARBA 1700   68 69  260/  6/  6 1013.5R
SANTA MONICA BAY 1650   69 72   90/  2/  6 1013.0F         3/ 6


USA.gov is the U.S. government's official web portal to all federal, state and local government web resources and services.